This demonstration page uses our WeatherBlox Daily Observations layout. Learn more.

Left ArrowRight Arrow

Hourly Observations for August 15, 2018

Temp ( °F °C ) Dew Point ( °F °C ) Humidity (%) Winds ( mph kmh ) Pressure ( in mb ) Visibility ( mi km ) Precip ( " mm )
12:10 am 00:10 Clear 65 18.2 65 18.2 100 100 Calm 30.03 1017 7 11 0.00 0.00
12:35 am 00:35 Clear 65 18.2 65 18.2 100 100 Calm 30.03 1017 7 11 0.00 0.00
1:00 am 01:00 Clear 65 18.1 65 18.1 100 100 Calm 30.00 1016 10 16 0.00 0.00
1:15 am 01:15 Clear 65 18.1 65 18.1 100 100 Calm 30.00 1016 10 16 0.00 0.00
1:35 am 01:35 Partly Cloudy 65 18.1 65 18.1 100 100 Calm 30.00 1016 10 16 0.00 0.00
1:55 am 01:55 Mostly Cloudy 65 18.3 65 18.3 100 100 Calm 30.00 1016 10 16 0.00 0.00
2:15 am 02:15 Partly Cloudy 65 18.2 65 18.2 100 100 Calm 30.00 1016 10 16 0.00 0.00
2:35 am 02:35 Clear 64 17.9 64 17.9 100 100 Calm 30.00 1016 7 11 0.00 0.00
2:55 am 02:55 Partly Cloudy 64 18 64 18 100 100 Calm 30.00 1016 7 11 0.00 0.00
3:15 am 03:15 Partly Cloudy 65 18.1 65 18.1 100 100 Calm 30.00 1016 7 11 0.00 0.00
3:35 am 03:35 Partly Cloudy 65 18.3 65 18.3 100 100 SSE 3 6 30.00 1016 10 16 0.00 0.00
3:55 am 03:55 Clear 65 18.6 65 18.6 100 100 Calm 30.00 1016 10 16 0.00 0.00
4:15 am 04:15 Partly Cloudy 65 18.5 65 18.5 100 100 SSE 3 6 30.00 1016 10 16 0.00 0.00
4:35 am 04:35 Clear 65 18.6 65 18.6 100 100 S 3 6 30.00 1016 10 16 0.00 0.00
4:55 am 04:55 Clear 66 18.7 66 18.7 100 100 Calm 30.00 1016 10 16 0.00 0.00
5:15 am 05:15 Clear 65 18.5 65 18.5 100 100 Calm 30.00 1016 10 16 0.00 0.00
5:35 am 05:35 Partly Cloudy 66 19 66 19 100 100 S 5 7 30.00 1016 10 16 0.00 0.00
5:55 am 05:55 Clear 66 19.1 66 19.1 100 100 S 5 7 30.00 1016 10 16 0.00 0.00
6:15 am 06:15 Clear 67 19.6 67 19.4 99 99 S 5 7 30.00 1016 10 16 0.00 0.00
6:35 am 06:35 Partly Cloudy 67 19.4 66 19.1 98 98 SSE 3 6 30.00 1016 10 16 0.00 0.00
6:55 am 06:55 Partly Cloudy 66 18.8 66 18.8 100 100 Calm 30.00 1016 10 16 0.00 0.00
7:15 am 07:15 Sunny 66 19 66 19 100 100 SE 5 7 30.00 1016 10 16 0.00 0.00
7:35 am 07:35 Sunny 68 19.9 67 19.3 96 96 S 5 7 30.03 1017 10 16 0.00 0.00
7:55 am 07:55 Sunny 68 20.2 67 19.5 96 96 SSE 3 6 30.03 1017 10 16 0.00 0.00
8:15 am 08:15 Sunny 70 20.9 68 20 95 95 SSW 5 7 30.03 1017 10 16 0.00 0.00
8:35 am 08:35 Sunny 71 21.4 68 20 92 92 SSW 6 9 30.03 1017 10 16 0.00 0.00
8:55 am 08:55 Sunny 71 21.5 68 20.1 92 92 SSW 6 9 30.00 1016 10 16 0.00 0.00
9:15 am 09:15 Sunny 71 21.7 68 20.1 91 91 SW 7 11 30.00 1016 10 16 0.00 0.00
9:35 am 09:35 Sunny 72 22 68 19.9 88 88 SSW 8 13 30.00 1016 10 16 0.00 0.00
9:55 am 09:55 Mostly Cloudy 72 22.1 67 19.7 86 86 SSW 7 11 30.00 1016 10 16 0.00 0.00
10:15 am 10:15 Cloudy with Rain 71 21.8 67 19.2 85 85 S 12 19 30.03 1017 7 11 0.00 0.00
10:35 am 10:35 Cloudy 69 20.6 68 19.9 96 96 S 5 7 30.03 1017 7 11 0.00 0.00
10:55 am 10:55 Cloudy 70 21.1 68 20 93 93 S 7 11 30.03 1017 10 16 0.00 0.00
11:15 am 11:15 Cloudy 71 21.7 68 20.1 91 91 S 7 11 30.00 1016 10 16 0.00 0.00
11:35 am 11:35 Cloudy 72 22.1 67 19.6 86 86 S 8 13 30.00 1016 10 16 0.00 0.00
11:55 am 11:55 Cloudy 74 23.1 68 20 83 83 S 10 17 30.03 1017 10 16 0.00 0.00
12:15 pm 12:15 Cloudy 73 22.5 67 19.7 84 84 S 10 17 30.03 1017 10 16 0.00 0.00
12:35 pm 12:35 Cloudy with Light Rain 71 21.6 68 20.2 92 92 SSW 8 13 30.06 1018 5 8 0.00 0.00
12:55 pm 12:55 Cloudy 71 21.7 68 20.2 91 91 S 9 15 30.06 1018 7 11 0.00 0.00
1:15 pm 13:15 Mostly Cloudy 73 22.5 69 20.6 89 89 S 9 15 30.03 1017 7 11 0.00 0.00
1:35 pm 13:35 Mostly Cloudy 73 22.5 68 19.8 85 85 S 9 15 30.03 1017 10 16 0.00 0.00
1:55 pm 13:55 Cloudy 72 22.2 68 20.2 89 89 S 9 15 30.03 1017 10 16 0.00 0.00
2:15 pm 14:15 Mostly Cloudy 73 22.5 69 20.3 87 87 S 8 13 30.00 1016 7 11 0.00 0.00
2:35 pm 14:35 Mostly Cloudy 71 21.9 69 20.4 91 91 SSE 8 13 30.03 1017 7 11 0.00 0.00
2:55 pm 14:55 Cloudy 70 21 69 20.8 99 99 S 7 11 30.06 1018 7 11 0.03 0.76
3:15 pm 15:15 Cloudy with Rain 70 21 70 20.9 99 99 SSE 7 11 30.03 1017 4 6 0.01 0.25
3:35 pm 15:35 Cloudy with Drizzle 70 21 70 21 100 100 SSE 6 9 30.03 1017 5 8 0.01 0.25
3:55 pm 15:55 Mostly Cloudy with Drizzle 69 20.8 69 20.8 100 100 SSE 7 11 30.03 1017 5 8 0.01 0.25
4:15 pm 16:15 Cloudy with Light Rain 69 20.8 69 20.8 100 100 SE 7 11 30.03 1017 5 8 0.01 0.25
4:35 pm 16:35 Mostly Cloudy with Rain 69 20.8 69 20.8 100 100 SE 7 11 30.00 1016 5 8 0.02 0.51
4:55 pm 16:55 Mostly Cloudy with Drizzle 70 20.9 70 20.9 100 100 SE 7 11 30.00 1016 5 8 0.02 0.51
5:15 pm 17:15 Cloudy with Rain 70 21 70 21 100 100 SSE 8 13 30.00 1016 5 8 0.00 0.00
5:35 pm 17:35 Cloudy 70 21 70 21 100 100 SSE 8 13 30.00 1016 7 11 0.00 0.00
5:55 pm 17:55 Cloudy 70 21 70 20.9 99 99 SSE 6 9 30.00 1016 7 11 0.00 0.00
6:15 pm 18:15 Cloudy 70 21 70 21 100 100 SSE 7 11 30.00 1016 7 11 0.00 0.00
6:35 pm 18:35 Cloudy with Mist and Fog 70 21.1 70 21 99 99 SE 7 11 30.00 1016 5 8 0.00 0.00
6:55 pm 18:55 Mostly Cloudy with Mist and Fog 70 21.3 70 21.2 99 99 SSE 7 11 29.97 1015 5 8 0.00 0.00
7:15 pm 19:15 Mostly Cloudy 70 21 70 21 100 100 SSE 5 7 30.00 1016 7 11 0.00 0.00
7:35 pm 19:35 Cloudy 69 20.7 69 20.6 99 99 SE 8 13 29.97 1015 7 11 0.00 0.00
7:55 pm 19:55 Cloudy with Nearby Thunderstorms 69 20.6 69 20.5 99 99 SSE 5 7 30.00 1016 10 16 0.00 0.00
8:15 pm 20:15 Cloudy 69 20.5 69 20.5 100 100 SE 5 7 30.00 1016 7 11 0.00 0.00
8:35 pm 20:35 Cloudy 69 20.5 69 20.5 100 100 S 3 6 30.00 1016 10 16 0.00 0.00
8:55 pm 20:55 Cloudy 69 20.3 69 20.3 100 100 SE 6 9 30.00 1016 10 16 0.00 0.00
9:15 pm 21:15 Cloudy with Drizzle 69 20.3 69 20.3 100 100 ESE 6 9 29.97 1015 7 11 0.01 0.25
9:35 pm 21:35 Cloudy with Drizzle 69 20.5 69 20.5 100 100 SE 7 11 30.00 1016 5 8 0.02 0.51
9:55 pm 21:55 Cloudy 69 20.5 69 20.5 100 100 SSE 6 9 30.00 1016 7 11 0.02 0.51
10:15 pm 22:15 Cloudy with Light Rain 69 20.6 69 20.6 100 100 S 8 13 30.00 1016 5 8 0.04 1.02
10:35 pm 22:35 Cloudy with Rain 69 20.7 69 20.7 100 100 S 8 13 30.00 1016 7 11 0.05 1.27
10:55 pm 22:55 Cloudy 69 20.5 69 20.5 100 100 S 6 9 30.00 1016 10 16 0.05 1.27
11:15 pm 23:15 Cloudy 69 20.6 69 20.6 100 100 S 6 9 30.00 1016 7 11 0.00 0.00
11:35 pm 23:35 Cloudy 70 20.9 70 20.9 100 100 S 8 13 30.00 1016 7 11 0.00 0.00
11:55 pm 23:55 Cloudy 70 21 70 21 100 100 S 8 13 29.94 1014 7 11 0.00 0.00

Powered by AerisWeather